Weather History for Boone, NC

Change the Weather History Date:

Monday, April 21, 2014

  Actual Average (KGEV) Record (KGEV)
Temperature  
Mean Temperature 50 °F -  
Max Temperature 71 °F 65 °F 80 °F (1985)
Min Temperature 30 °F 41 °F 29 °F (1981)
Degree Days  
Heating Degree Days 14    
Moisture  
Dew Point 33 °F    
Average Humidity 54    
Maximum Humidity 100    
Minimum Humidity 23    
Precipitation  
Precipitation 0.00 in - - ()
Sea Level Pressure  
Sea Level Pressure 30.12 in    
Wind  
Wind Speed 4 mph (West)    
Max Wind Speed 17 mph    
Max Gust Speed 23 mph    
Visibility 10 miles    
Events      
Averages and records for this station are not official NWS values.
T = Trace of Precipitation, MM = Missing Value Source: NWS Daily Summary

Daily Weather History Graph

Daily Weather History Graph

Search for Another Location

Airport:

Trip Planner

Search our weather history database for the weather conditions in past years. The results will help you decide how hot, cold, wet, or windy it might be!

Date:

Astronomy

Apr. 21, 2014 Rise Set
Actual Time 6:45 AM EDT 8:05 PM EDT
Civil Twilight 6:18 AM EDT 8:32 PM EDT
Nautical Twilight 5:46 AM EDT 9:04 PM EDT
Astronomical Twilight 5:13 AM EDT 9:38 PM EDT
Moon 1:31 AM EDT (4/21) 12:12 PM EDT (4/21)
Length of Visible Light 14h 13m
Length of Day
13h 20m
Waning Gibbous, 58% of the Moon is Illuminated
Apr 21
Waning Gibbous
Apr 22
Last Quarter
Apr 29
New
May 6
First Quarter
May 14
Full

Hourly Weather History & Observations

Time (EDT) Temp. Windchill Dew Point Humidity Pressure Visibility Wind Dir Wind Speed Gust Speed Precip Events Conditions
12:15 AM 38.3 °F - 31.8 °F 77% 30.25 in 10.0 mi Calm Calm - N/A   Clear
12:35 AM 36.9 °F - 31.8 °F 82% 30.25 in 10.0 mi Calm Calm - N/A   Clear
12:55 AM 36.5 °F - 31.8 °F 83% 30.25 in 10.0 mi Calm Calm - N/A   Clear
1:15 AM 37.6 °F - 31.5 °F 79% 30.25 in 10.0 mi Calm Calm - N/A   Clear
1:35 AM 36.3 °F - 31.3 °F 82% 30.23 in 10.0 mi Calm Calm - N/A   Clear
1:55 AM 34.7 °F - 30.9 °F 86% 30.23 in 10.0 mi Calm Calm - N/A   Clear
2:15 AM 34.5 °F - 31.1 °F 87% 30.22 in 10.0 mi Calm Calm - N/A   Clear
2:35 AM 33.4 °F - 31.8 °F 94% 30.21 in 10.0 mi Calm Calm - N/A   Clear
2:55 AM 33.8 °F - 30.9 °F 89% 30.21 in 10.0 mi Calm Calm - N/A   Clear
3:15 AM 34.0 °F - 32.0 °F 92% 30.21 in 10.0 mi Calm Calm - N/A   Clear
3:35 AM 33.1 °F - 32.0 °F 96% 30.21 in 10.0 mi Calm Calm - N/A   Clear
3:55 AM 33.6 °F - 30.7 °F 89% 30.21 in 10.0 mi Calm Calm - N/A   Clear
4:15 AM 32.7 °F - 31.8 °F 96% 30.20 in 10.0 mi Calm Calm - N/A   Clear
4:35 AM 32.0 °F - 31.8 °F 99% 30.20 in 10.0 mi Calm Calm - N/A   Clear
4:55 AM 32.0 °F - 31.8 °F 99% 30.20 in 10.0 mi Calm Calm - N/A   Clear
5:15 AM 32.0 °F - 32.0 °F 100% 30.19 in 10.0 mi Calm Calm - N/A   Clear
5:35 AM 31.6 °F - 31.5 °F 99% 30.19 in 10.0 mi Calm Calm - N/A   Clear
5:55 AM 31.6 °F - 31.3 °F 99% 30.19 in 10.0 mi Calm Calm - N/A   Clear
6:15 AM 31.5 °F - 31.5 °F 100% 30.19 in 10.0 mi Calm Calm - N/A   Clear
6:35 AM 30.4 °F 26.9 °F 30.4 °F 100% 30.20 in 10.0 mi SSE 3.5 mph - N/A   Clear
6:55 AM 31.1 °F - 31.1 °F 100% 30.20 in 10.0 mi Calm Calm - N/A   Clear
7:15 AM 31.6 °F - 31.5 °F 99% 30.20 in 10.0 mi Calm Calm - N/A   Clear
7:35 AM 33.1 °F - 32.2 °F 96% 30.20 in 10.0 mi Calm Calm - N/A   Clear
7:55 AM 34.5 °F - 33.1 °F 94% 30.19 in 10.0 mi Calm Calm - N/A   Clear
8:15 AM 37.4 °F - 32.2 °F 81% 30.19 in 10.0 mi Calm Calm - N/A   Clear
8:35 AM 41.0 °F - 32.0 °F 70% 30.19 in 10.0 mi Calm Calm - N/A   Clear
8:55 AM 45.7 °F - 33.4 °F 62% 30.19 in 10.0 mi Calm Calm - N/A   Clear
9:15 AM 53.1 °F - 30.9 °F 43% 30.18 in 10.0 mi WNW 11.5 mph 17.3 mph N/A   Clear
9:35 AM 56.8 °F - 27.5 °F 33% 30.18 in 10.0 mi West 11.5 mph 17.3 mph N/A   Clear
9:55 AM 58.5 °F - 28.8 °F 32% 30.17 in 10.0 mi West 9.2 mph 17.3 mph N/A   Clear
10:15 AM 59.5 °F - 30.0 °F 33% 30.17 in 10.0 mi West 17.3 mph 23.0 mph N/A   Clear
10:35 AM 60.3 °F - 30.4 °F 32% 30.17 in 10.0 mi West 12.7 mph 20.7 mph N/A   Clear
10:55 AM 61.7 °F - 30.7 °F 31% 30.17 in 10.0 mi West 12.7 mph - N/A   Clear
11:15 AM 63.5 °F - 30.7 °F 29% 30.16 in 10.0 mi West 11.5 mph 17.3 mph N/A   Clear
11:35 AM 64.2 °F - 30.9 °F 29% 30.15 in 10.0 mi WNW 12.7 mph 20.7 mph N/A   Clear
11:55 AM 65.3 °F - 31.3 °F 28% 30.15 in 10.0 mi WNW 12.7 mph 20.7 mph N/A   Clear
12:15 PM 66.0 °F - 32.0 °F 28% 30.14 in 10.0 mi West 13.8 mph - N/A   Clear
12:35 PM 66.2 °F - 32.2 °F 28% 30.13 in 10.0 mi West 13.8 mph 19.6 mph N/A   Clear
12:55 PM 67.3 °F - 32.4 °F 27% 30.12 in 10.0 mi West 12.7 mph 18.4 mph N/A   Clear
1:15 PM 68.2 °F - 32.4 °F 26% 30.11 in 10.0 mi NW 10.4 mph 18.4 mph N/A   Clear
1:35 PM 68.4 °F - 32.0 °F 26% 30.10 in 10.0 mi West 11.5 mph - N/A   Clear
1:55 PM 68.9 °F - 32.0 °F 25% 30.09 in 10.0 mi West 9.2 mph 18.4 mph N/A   Clear
2:15 PM 69.8 °F - 32.0 °F 25% 30.09 in 10.0 mi NW 11.5 mph - N/A   Clear
2:35 PM 69.4 °F - 31.6 °F 25% 30.08 in 10.0 mi West 9.2 mph - N/A   Clear
2:55 PM 70.0 °F - 32.0 °F 25% 30.07 in 10.0 mi West 10.4 mph 16.1 mph N/A   Clear
3:15 PM 70.3 °F - 31.8 °F 24% 30.06 in 10.0 mi West 13.8 mph 17.3 mph N/A   Clear
3:35 PM 70.5 °F - 30.9 °F 23% 30.05 in 10.0 mi West 9.2 mph 17.3 mph N/A   Clear
3:55 PM 71.4 °F - 31.5 °F 23% 30.05 in 10.0 mi WNW 10.4 mph 18.4 mph N/A   Clear
4:15 PM 70.3 °F - 30.9 °F 23% 30.05 in 10.0 mi NW 9.2 mph - N/A   Clear
4:35 PM 71.4 °F - 31.6 °F 23% 30.04 in 10.0 mi WNW 12.7 mph 17.3 mph N/A   Clear
4:55 PM 70.9 °F - 32.0 °F 24% 30.03 in 10.0 mi West 8.1 mph - N/A   Clear
5:15 PM 71.4 °F - 31.8 °F 23% 30.03 in 10.0 mi NW 8.1 mph - N/A   Clear
5:35 PM 70.7 °F - 32.0 °F 24% 30.03 in 10.0 mi NNW 5.8 mph - N/A   Clear
5:55 PM 70.3 °F - 32.0 °F 24% 30.03 in 10.0 mi WNW 10.4 mph - N/A   Clear
6:15 PM 69.8 °F - 32.2 °F 25% 30.03 in 10.0 mi WNW 9.2 mph - N/A   Clear
6:35 PM 68.9 °F - 33.3 °F 27% 30.03 in 10.0 mi WNW 6.9 mph - N/A   Clear
6:55 PM 68.0 °F - 33.1 °F 27% 30.03 in 10.0 mi West 11.5 mph - N/A   Clear
7:15 PM 67.1 °F - 32.9 °F 28% 30.03 in 10.0 mi West 10.4 mph - N/A   Clear
7:35 PM 66.4 °F - 32.9 °F 29% 30.03 in 10.0 mi WNW 9.2 mph - N/A   Clear
7:55 PM 65.8 °F - 33.4 °F 30% 30.03 in 10.0 mi West 5.8 mph - N/A   Clear
8:15 PM 64.2 °F - 38.3 °F 38% 30.03 in 10.0 mi SW 6.9 mph - N/A   Clear
8:35 PM 63.0 °F - 40.3 °F 43% 30.03 in 10.0 mi South 6.9 mph - N/A   Clear
8:55 PM 62.4 °F - 40.8 °F 45% 30.03 in 10.0 mi South 5.8 mph - N/A   Clear
9:15 PM 61.7 °F - 40.6 °F 46% 30.03 in 10.0 mi SSW 8.1 mph - N/A   Clear
9:35 PM 61.2 °F - 40.3 °F 46% 30.03 in 10.0 mi Calm Calm - N/A   Clear
9:55 PM 60.8 °F - 40.3 °F 47% 30.03 in 10.0 mi SW 5.8 mph - N/A   Clear
10:15 PM 59.7 °F - 40.5 °F 49% 30.03 in 10.0 mi SSW 3.5 mph - N/A   Clear
10:35 PM 60.3 °F - 40.1 °F 47% 30.02 in 10.0 mi West 4.6 mph - N/A   Clear
10:55 PM 59.9 °F - 40.1 °F 48% 30.02 in 10.0 mi WSW 4.6 mph - N/A   Clear
11:15 PM 58.6 °F - 41.5 °F 53% 30.02 in 10.0 mi Calm Calm - N/A   Clear
11:35 PM 58.3 °F - 41.0 °F 53% 30.01 in 10.0 mi Calm Calm - N/A   Clear
11:55 PM 55.6 °F - 42.6 °F 62% 30.00 in 10.0 mi Calm Calm - N/A   Clear